This is the latest recevied weather packets stored in our database for station/object KM8V-8. If no packets are shown the sender has not sent any weather packets the latest 10 day(s).
| Time | Temp. | Humidity | Pressure | Rain* | Wind** | Luminosity | Snow |
|---|---|---|---|---|---|---|---|
| 1777382117 | 15.56° C | 83% | 1010 hPa | 0 mm | - | 380 W/m² | - |
| 1777381819 | 15.56° C | 83% | 1010.1 hPa | 0 mm | - | 361 W/m² | - |
| 1777381522 | 15° C | 84% | 1010.2 hPa | 0 mm | - | 354 W/m² | - |
| 1777381220 | 15° C | 84% | 1010.2 hPa | 0 mm | - | 259 W/m² | - |
| 1777378817 | 14.44° C | 87% | 1010.1 hPa | 0 mm | - | 116 W/m² | - |
| 1777378517 | 14.44° C | 88% | 1010 hPa | 0 mm | - | 109 W/m² | - |
| 1777378217 | 14.44° C | 89% | 1010 hPa | 0 mm | - | 111 W/m² | - |
| 1777377917 | 14.44° C | 89% | 1010 hPa | 0 mm | - | 109 W/m² | - |
| 1777377319 | 14.44° C | 89% | 1009.8 hPa | 0 mm | - | 95 W/m² | - |
| 1777377018 | 14.44° C | 90% | 1009.9 hPa | 0 mm | - | 86 W/m² | - |
| 1777376119 | 14.44° C | 90% | 1009.9 hPa | 0 mm | - | 53 W/m² | - |
| 1777375518 | 14.44° C | 90% | 1009.8 hPa | 0 mm | - | 38 W/m² | - |
| 1777375218 | 14.44° C | 90% | 1009.9 hPa | 0 mm | - | 28 W/m² | - |
| 1777374319 | 14.44° C | 90% | 1009.7 hPa | 0 mm | - | 10 W/m² | - |
| 1777373719 | 14.44° C | 90% | 1009.3 hPa | 0 mm | - | 11 W/m² | - |
| 1777372518 | 15° C | 90% | 1008.6 hPa | 0 mm | - | 1 W/m² | - |
| 1777372219 | 15° C | 90% | 1008.5 hPa | 0 mm | - | 1 W/m² | - |
| 1777371919 | 15° C | 90% | 1008.4 hPa | 0 mm | - | 1 W/m² | - |
| 1777371619 | 15° C | 90% | 1008.3 hPa | 0 mm | - | 0 W/m² | - |
| 1777371319 | 14.44° C | 91% | 1008.1 hPa | 0 mm | - | 0 W/m² | - |
| 1777371019 | 14.44° C | 91% | 1007.9 hPa | 0 mm | - | 0 W/m² | - |
| 1777370719 | 14.44° C | 91% | 1007.8 hPa | 0 mm | - | 0 W/m² | - |
| 1777370419 | 14.44° C | 92% | 1007.7 hPa | 0 mm | - | 0 W/m² | - |
| 1777370119 | 14.44° C | 92% | 1007.8 hPa | 0 mm | - | 0 W/m² | - |
| 1777369819 | 14.44° C | 93% | 1007.6 hPa | 0 mm | - | 0 W/m² | - |
* Rain latest hour (hover to see other rain measurements)
** Current wind speed in m/s (hover to see current wind gust speed)